Regional Weather Roundup
Issued by NWS

Home | Current Version | Previous Version | Graphics & Text | Print | Product List | Glossary On
Versions: 1 2 3 4 5 6 7 8 9 10 11 12 13 14 15 16 17 18 19 20 21 22 23 24 25 26 27 28 29 30 31 32 33 34 35 36 37 38 39 40 41 42 43 44 45 46 47 48 49 50
000
ASUS43 KTOP 031608
RWRKS

WEATHER ROUNDUP FOR KANSAS
NATIONAL WEATHER SERVICE GOODLAND KS
1000 AM CST TUE MAR 03 2015

NOTE:  "FAIR" INDICATES FEW OR NO CLOUDS BELOW 12,000 FEET WITH NO
SIGNIFICANT WEATHER AND/OR OBSTRUCTIONS TO VISIBILITY.

KSZ001>006-013>018-027>032-041>047-031700-
NORTHWEST KANSAS

CITY           SKY/WX    TMP DP  RH WIND       PRES   REMARKS
GOODLAND       CLOUDY    32  28  85 N22       29.85R WCI  19
HAYS           PTSUNNY   39  25  56 N23       29.83R WCI  29
HILL CITY      CLOUDY    35  27  72 N15G24    29.85R WCI  25
RUSSELL        PTSUNNY   39  28  64 NW24      29.82R WCI  28
$$

KSZ061>065-074>080-084>089-031700-
SOUTHWEST KANSAS

CITY           SKY/WX    TMP DP  RH WIND       PRES   REMARKS
DODGE CITY     CLOUDY    40  32  73 N21G29    29.82R WCI  30
ELKHART          N/A     48  30  49 W12         N/A
GARDEN CITY    CLOUDY    33  30  88 NE21      29.83R WCI  21
GREAT BEND     CLOUDY    39  28  65 NW18      29.83R WCI  30
LIBERAL        CLOUDY    43  34  70 SW12      29.80S
PRATT          CLOUDY    43  36  75 NW17      29.82R
$$

KSZ066>073-081>083-090>101-031700-
SOUTHEAST KANSAS

CITY           SKY/WX    TMP DP  RH WIND       PRES   REMARKS
CHANUTE        CLOUDY    43  42  97 SW18G26   29.82S
COFFEYVILLE    CLOUDY    42  40  92 S13G26    29.87R
HUTCHINSON     CLOUDY    47  35  63 W16       29.79R
MEDICINE LODGE   N/A     43  36  76 SW6       29.79R
NEWTON         CLOUDY    41  34  75 SW16      29.79R
PARSONS        CLOUDY    42  41  96 SW13      29.85R
WICHITA INTL   CLOUDY    41  36  82 SW10      29.80R
WICHITA JABRA  CLOUDY    41  37  86 SW16G23   29.80R
WICHITA MCCONL CLOUDY    41  37  87 SW10      29.80R
WINFIELD       CLOUDY    42  38  85 SW23      29.82R
$$

KSZ007>012-019>026-033>040-048>060-102>105-031700-
NORTHEAST KANSAS

CITY           SKY/WX    TMP DP  RH WIND       PRES   REMARKS
CONCORDIA      PTSUNNY   40  29  64 NW23G30   29.79R WCI  30
EMPORIA        CLOUDY    43  37  79 SW18G24   29.77R
LAWRENCE       CLOUDY    44  37  76 SW13      29.76R
MANHATTAN      CLOUDY    46  36  68 W14G20    29.76R
MARYSVILLE     CLOUDY    37  32  81 NW22G29   29.75R WCI  27
OLATHE IND     CLOUDY    41  39  93 SW21G28   29.76R
OLATHE EXE     CLOUDY    41  39  93 SW14G22   29.74R FOG
SALINA         CLOUDY    45  32  60 NW23      29.80R
TOPEKA BILLARD PTSUNNY   46  37  71 SW12G22   29.77R
TOPEKA FORBES  CLOUDY    46  37  71 SW20G28   29.75R
$$


USA.gov is the U.S. government's official web portal to all federal, state and local government web resources and services.